Regional Weather Roundup
Issued by NWS New Orleans/Baton Rouge, LA

Home | Current Version | Previous Version | Graphics & Text | Print | Product List | Glossary On
Versions: 1 2 3 4 5 6 7 8 9 10 11 12 13 14 15 16 17 18 19 20 21 22 23 24 25 26 27 28 29 30 31 32 33 34 35 36 37 38 39 40 41 42 43 44 45 46 47 48 49 50
019
ASUS44 KLIX 222105
RWRLIX
NEW ORLEANS REGIONAL WEATHER ROUNDUP
NATIONAL WEATHER SERVICE NEW ORLEANS LA
300 PM CST MON DEC 22 2014

NOTE: "FAIR" INDICATES FEW OR NO CLOUDS BELOW 12,000 FEET WITH NO
      SIGNIFICANT WEATHER AND/OR OBSTRUCTIONS TO VISIBILITY.
      SKY/WX - SKY CONDITION AND SIGNIFICANT WEATHER.
      TMP - AIR TEMPERATURE.     DP    - DEWPOINT TEMPERATURE.
      RH  - RELATIVE HUMIDITY.   PRES  - PRESSURE.
      HI  - HEAT INDEX.          WCI   - WIND CHILL INDEX.

*  THESE STATIONS ARE NOT NWS OR FAA STATIONS AND ARE NOT UNDER
   NWS QUALITY CONTROL.

LAZ038-040-048-061>063-065>067-069-222200-
SOUTHEAST LOUISIANA

CITY           SKY/WX    TMP DP  RH WIND       PRES   REMARKS
N.O. AUDUBON     N/A     70  69  96 MISG        N/A
N.O. INTL ARPT PTSUNNY   75  66  73 S20       29.71S
N.O. LAKEFRONT MOSUNNY   75  66  73 S17       29.72S
N.O. DOWNTOWN* MOCLDY    72  66  83 S14G20    29.72F
SLIDELL        LGT RAIN  72  67  84 SW8       29.71F
BATON ROUGE    PTSUNNY   76  62  62 SW15      29.67F
BOOTHVILLE     MOSUNNY   72  67  84 S15       29.76F
BELLE CHASSE   PTSUNNY   74  68  81 S17       29.72S
BOGALUSA*        N/A     76  65  68 SW9       29.71F
GALLIANO*      MOCLDY    76  68  77 MISG      29.73F
NEW ROADS*     MOCLDY    73  63  70 S7        29.66F
GONZALES*      MOCLDY    76  65  69 SW14G20   29.69S
HAMMOND*       NOT AVBL
HOUMA*         PTSUNNY   73  70  88 SW15G21   29.72F
PORT FOURCHON* PTCLDY    73  68  83 S12G18    29.77F

$$

MSZ070-080>082-222200-
SOUTHERN MISSISSIPPI

CITY           SKY/WX    TMP DP  RH WIND       PRES   REMARKS
MCCOMB         MOSUNNY   70  63  78 SW8       29.68F
GULFPORT       CLOUDY    65  64  97 S7        29.74S FOG
BILOXI         SUNNY     65  65 100 S9        29.74F FOG
PASCAGOULA     CLOUDY    71  67  87 S8        29.75S
STENNIS ARPT*  CLOUDY    68  63  83 S6        29.73S

$$

COASTAL OBSERVATIONS
LAKE AND NEARSHORE STATIONS

STATION/POSITION TIME  TEMP    WIND        PRES    WAVE
                       AIR SEA DIR/SP/G            HT/PER
                 (UTC) (F)     (DEG/KT/KT) (MB)    (FT/S)
PASCAGOULA       2100   67     170/ 13/ 15 1007.1
WAVELAND YACHT   2100   61     170/  6/  6 1006.3
GRAND ISLE       2100   71 62  200/  7/ 12 1007.7
SOUTHWEST PASS   2100   65                 1008.4
NEW CANAL        2100   74 58  200/  9/ 14 1006.5
SHELL BEACH      2100   71 59  200/ 14/ 17 1006.7

OFFSHORE STATIONS

STATION/POSITION TIME  TEMP    WIND        PRES    WAVE
                       AIR SEA DIR/SP/G            HT/PER
                 (UTC) (F)     (DEG/KT/KT) (MB)    (FT/S)
64 S DAUPHIN ISL 2100   74 74  220/ 16/ 19 1008.1    3/ 4

$$




USA.gov is the U.S. government's official web portal to all federal, state and local government web resources and services.